• In Netherlands
  • List of Countries
  • For 7 days
  • Water Temperature
  • Satellite Maps
  • Weather Map
  • Weather Widgets
  • user-avatar
    Login

    Hourly Weather Giumri

    Today, 30 March, Thursday

    Time Temperature Precipitation Wind Pressure Humidity
    00:00 -3°C° 0 mm 1 mps 632 mmHg 86%
    01:00 -4°C° 0 mm 1 mps 632 mmHg 86%
    02:00 -4°C° 0 mm 1 mps 631 mmHg 87%
    03:00 -6°C° 0 mm 0 mps 631 mmHg 87%
    04:00 -6°C° 0 mm 0 mps 631 mmHg 87%
    05:00 -6°C° 0 mm 0 mps 632 mmHg 88%
    06:00 -5°C° 0 mm 0 mps 632 mmHg 88%
    07:00 -1°C° 0 mm 1 mps 633 mmHg 83%
    08:00 +3°C° 0 mm 1 mps 634 mmHg 79%
    09:00 +5°C° 0 mm 2 mps 635 mmHg 74%
    10:00 +6°C° 0 mm 2 mps 635 mmHg 72%
    11:00 +7°C° 0 mm 2 mps 635 mmHg 70%
    12:00 +8°C° 0 mm 2 mps 634 mmHg 69%
    13:00 +8°C° 0 mm 2 mps 634 mmHg 68%
    14:00 +9°C° 0 mm 2 mps 634 mmHg 67%
    15:00 +9°C° 0 mm 2 mps 633 mmHg 66%
    16:00 +7°C° 0 mm 2 mps 633 mmHg 69%
    17:00 +5°C° 0 mm 2 mps 632 mmHg 73%
    18:00 +5°C° 0 mm 1 mps 631 mmHg 76%
    19:00 +3°C° 0 mm 1 mps 631 mmHg 78%
    20:00 +1°C° 0 mm 1 mps 631 mmHg 80%
    21:00 0°C° 0 mm 1 mps 631 mmHg 82%
    22:00 -1°C° 0 mm 1 mps 631 mmHg 82%
    23:00 -1°C° 0 mm 1 mps 630 mmHg 83%

    Tomorrow, 31 March, Friday

    Time Temperature Precipitation Wind Pressure Humidity
    00:00 -1°C° 0 mm 1 mps 630 mmHg 83%
    01:00 -1°C° 0 mm 1 mps 630 mmHg 83%
    02:00 -1°C° 0 mm 1 mps 630 mmHg 82%
    03:00 0°C° 0 mm 1 mps 631 mmHg 81%
    04:00 0°C° 0 mm 1 mps 630 mmHg 82%
    05:00 0°C° 0 mm 1 mps 630 mmHg 82%
    06:00 -1°C° 0 mm 0 mps 630 mmHg 83%
    07:00 +1°C° 0 mm 0 mps 631 mmHg 79%
    08:00 +5°C° 0 mm 1 mps 632 mmHg 75%
    09:00 +7°C° 0 mm 1 mps 632 mmHg 71%
    10:00 +8°C° 0.1 mm 1 mps 632 mmHg 70%
    11:00 +8°C° 0.1 mm 1 mps 632 mmHg 69%
    12:00 +9°C° 0.1 mm 1 mps 632 mmHg 68%
    13:00 +9°C° 0.3 mm 1 mps 632 mmHg 70%
    14:00 +9°C° 0.3 mm 1 mps 632 mmHg 72%
    15:00 +7°C° 0.3 mm 2 mps 632 mmHg 75%
    16:00 +7°C° 0.3 mm 2 mps 631 mmHg 78%
    17:00 +6°C° 0.3 mm 2 mps 631 mmHg 81%
    18:00 +6°C° 0.3 mm 1 mps 631 mmHg 85%
    19:00 +5°C° 0.3 mm 1 mps 631 mmHg 87%
    20:00 +5°C° 0.3 mm 1 mps 632 mmHg 89%
    21:00 +4°C° 0.3 mm 1 mps 632 mmHg 91%
    22:00 +4°C° 0.3 mm 1 mps 632 mmHg 91%
    23:00 +4°C° 0.3 mm 1 mps 632 mmHg 91%

    Day after tomorrow, 1 April, Saturday

    Time Temperature Precipitation Wind Pressure Humidity
    00:00 +2°C° 0.3 mm 2 mps 632 mmHg 91%
    01:00 +2°C° 0.4 mm 2 mps 632 mmHg 92%
    02:00 +2°C° 0.4 mm 2 mps 632 mmHg 93%
    03:00 +2°C° 0.4 mm 2 mps 631 mmHg 93%
    04:00 +1°C° 0.4 mm 2 mps 631 mmHg 93%
    05:00 +1°C° 0.4 mm 2 mps 631 mmHg 93%
    06:00 +1°C° 0.4 mm 2 mps 631 mmHg 93%
    07:00 +2°C° 0.3 mm 2 mps 631 mmHg 91%
    08:00 +3°C° 0.3 mm 2 mps 632 mmHg 88%
    09:00 +3°C° 0.3 mm 2 mps 632 mmHg 86%
    10:00 +4°C° 0.3 mm 2 mps 632 mmHg 84%
    11:00 +5°C° 0.3 mm 2 mps 632 mmHg 83%
    12:00 +5°C° 0.3 mm 2 mps 632 mmHg 82%
    13:00 +7°C° 0.3 mm 1 mps 631 mmHg 82%
    14:00 +7°C° 0.3 mm 1 mps 631 mmHg 82%
    15:00 +7°C° 0.3 mm 1 mps 631 mmHg 82%
    16:00 +6°C° 0.4 mm 1 mps 631 mmHg 85%
    17:00 +6°C° 0.4 mm 1 mps 631 mmHg 88%
    18:00 +5°C° 0.4 mm 1 mps 631 mmHg 90%
    19:00 +4°C° 0.2 mm 1 mps 631 mmHg 92%
    20:00 +4°C° 0.2 mm 1 mps 631 mmHg 93%
    21:00 +3°C° 0.2 mm 1 mps 632 mmHg 94%
    22:00 +2°C° 0.1 mm 1 mps 632 mmHg 94%
    23:00 +2°C° 0.1 mm 1 mps 631 mmHg 94%

    2 April, Sunday

    Time Temperature Precipitation Wind Pressure Humidity
    00:00 +1°C° 0.1 mm 1 mps 631 mmHg 95%
    01:00 +1°C° 0 mm 1 mps 631 mmHg 94%
    02:00 +1°C° 0 mm 1 mps 631 mmHg 94%
    03:00 +1°C° 0 mm 1 mps 631 mmHg 94%
    04:00 +1°C° 0 mm 1 mps 632 mmHg 94%
    05:00 +1°C° 0 mm 1 mps 632 mmHg 93%
    06:00 +1°C° 0 mm 1 mps 632 mmHg 93%
    07:00 +2°C° 0 mm 1 mps 633 mmHg 88%
    08:00 +4°C° 0 mm 1 mps 633 mmHg 82%
    09:00 +5°C° 0 mm 1 mps 634 mmHg 77%
    10:00 +6°C° 0.2 mm 1 mps 634 mmHg 76%
    11:00 +7°C° 0.2 mm 1 mps 634 mmHg 75%
    12:00 +6°C° 0.2 mm 2 mps 635 mmHg 74%
    13:00 +6°C° 0.5 mm 2 mps 634 mmHg 75%
    14:00 +6°C° 0.5 mm 2 mps 634 mmHg 76%
    15:00 +5°C° 0.5 mm 3 mps 634 mmHg 77%
    16:00 +4°C° 0.2 mm 3 mps 634 mmHg 80%
    17:00 +3°C° 0.2 mm 3 mps 634 mmHg 83%
    18:00 +2°C° 0.2 mm 3 mps 634 mmHg 86%
    19:00 +2°C° 0 mm 2 mps 634 mmHg 88%
    20:00 +1°C° 0 mm 2 mps 635 mmHg 90%
    21:00 -1°C° 0 mm 2 mps 635 mmHg 92%
    22:00 -2°C° 0 mm 2 mps 635 mmHg 92%
    23:00 -2°C° 0 mm 2 mps 635 mmHg 92%

    3 April, Monday

    Time Temperature Precipitation Wind Pressure Humidity
    00:00 -2°C° 0 mm 2 mps 635 mmHg 92%
    01:00 -3°C° 0 mm 2 mps 634 mmHg 92%
    02:00 -2°C° 0 mm 1 mps 634 mmHg 92%
    03:00 -2°C° 0 mm 1 mps 634 mmHg 92%
    04:00 -2°C° 0 mm 1 mps 634 mmHg 92%
    05:00 -3°C° 0 mm 1 mps 634 mmHg 92%
    06:00 -3°C° 0 mm 1 mps 633 mmHg 92%
    07:00 -1°C° 0 mm 1 mps 634 mmHg 83%
    08:00 +2°C° 0 mm 1 mps 635 mmHg 75%
    09:00 +3°C° 0 mm 0 mps 635 mmHg 67%
    10:00 +5°C° 0 mm 0 mps 635 mmHg 63%
    11:00 +7°C° 0 mm 1 mps 635 mmHg 59%
    12:00 +8°C° 0 mm 1 mps 635 mmHg 56%
    13:00 +8°C° 0 mm 1 mps 635 mmHg 56%
    14:00 +9°C° 0 mm 1 mps 634 mmHg 57%
    15:00 +9°C° 0 mm 1 mps 634 mmHg 57%
    16:00 +7°C° 0 mm 1 mps 633 mmHg 63%
    17:00 +5°C° 0 mm 1 mps 633 mmHg 69%
    18:00 +3°C° 0 mm 1 mps 632 mmHg 75%
    19:00 +1°C° 0 mm 1 mps 632 mmHg 79%
    20:00 -1°C° 0 mm 1 mps 632 mmHg 84%
    21:00 -2°C° 0 mm 1 mps 631 mmHg 88%
    22:00 -3°C° 0 mm 0 mps 631 mmHg 88%
    23:00 -3°C° 0 mm 0 mps 631 mmHg 87%

    4 April, Tuesday

    Time Temperature Precipitation Wind Pressure Humidity
    00:00 -4°C° 0 mm 0 mps 631 mmHg 86%
    01:00 -4°C° 0 mm 0 mps 631 mmHg 83%
    02:00 -3°C° 0 mm 0 mps 631 mmHg 81%
    03:00 -2°C° 0 mm 1 mps 631 mmHg 78%
    04:00 -2°C° 0 mm 1 mps 631 mmHg 77%
    05:00 -2°C° 0 mm 1 mps 632 mmHg 75%
    06:00 -2°C° 0 mm 1 mps 632 mmHg 74%
    07:00 +1°C° 0 mm 1 mps 633 mmHg 67%
    08:00 +4°C° 0 mm 1 mps 634 mmHg 61%
    09:00 +7°C° 0 mm 1 mps 635 mmHg 54%
    10:00 +8°C° 0 mm 1 mps 635 mmHg 53%
    11:00 +9°C° 0 mm 1 mps 635 mmHg 52%
    12:00 +10°C° 0 mm 1 mps 635 mmHg 51%
    13:00 +11°C° 0 mm 1 mps 635 mmHg 52%
    14:00 +11°C° 0 mm 1 mps 635 mmHg 52%
    15:00 +11°C° 0 mm 1 mps 635 mmHg 52%
    16:00 +9°C° 0 mm 1 mps 634 mmHg 57%
    17:00 +7°C° 0 mm 1 mps 634 mmHg 62%
    18:00 +5°C° 0 mm 1 mps 633 mmHg 67%
    19:00 +3°C° 0 mm 1 mps 633 mmHg 69%
    20:00 +2°C° 0 mm 1 mps 633 mmHg 71%
    21:00 +1°C° 0 mm 1 mps 632 mmHg 73%
    22:00 0°C° 0 mm 1 mps 632 mmHg 72%
    23:00 -1°C° 0 mm 0 mps 632 mmHg 71%
    Show more